F1ZVN-13 Weather Reports


Display with metric or nautical units.
time (UTC)temp
F
wind
direction
speed
MPH
gust
MPH
rain 1hr
in
rain 24hr
in
rain mn
in
humidity
%
barometer
mb
20260506134602 39 180 0.0 0.0 0.00 0.00 0.00 88 1001.4
20260506134403 38 180 0.0 0.0 0.00 0.00 0.00 86 1001.4
20260506134200 38 180 0.0 0.0 0.00 0.00 0.00 86 1001.4
20260506134002 38 180 0.0 0.0 0.00 0.00 0.00 85 1001.4
20260506133829 38 180 0.0 0.0 0.00 0.00 0.00 86 1001.4
20260506133758 38 180 0.0 0.0 0.00 0.00 0.00 86 1001.4
20260506133601 39 180 0.0 0.0 0.00 0.00 0.00 86 1001.3
20260506133432 39 180 0.0 0.0 0.00 0.00 0.00 84 1001.3
20260506133356 39 180 0.0 0.0 0.00 0.00 0.00 84 1001.3
20260506133153 39 180 0.0 0.0 0.00 0.00 0.00 85 1001.1
20260506132952 39 180 0.0 0.0 0.00 0.00 0.00 84 1001.1
20260506132751 40 180 0.0 0.0 0.00 0.00 0.00 83 1001.1
20260506132548 40 180 0.0 0.0 0.00 0.00 0.00 82 1001.3
20260506132146 43 180 0.0 0.0 0.00 0.00 0.00 79 1001.3
20260506131946 42 180 0.0 0.0 0.00 0.00 0.00 79 1001.3
20260506131816 41 180 0.0 0.0 0.00 0.00 0.00 79 1001.3
20260506131743 41 180 0.0 0.0 0.00 0.00 0.00 79 1001.3
20260506130946 40 180 0.0 0.0 0.00 0.00 0.00 83 1001.1
20260506130336 39 180 0.0 0.0 0.00 0.00 0.00 82 1001.3
20260506130134 40 180 0.0 0.0 0.00 0.00 0.00 81 1001.3
20260506125824 41 180 0.0 0.0 0.00 0.00 0.00 80 1001.3
20260506125732 41 180 0.0 0.0 0.00 0.00 0.00 80 1001.3
20260506125531 42 180 0.0 0.0 0.00 0.00 0.00 77 1001.3
20260506125332 43 180 0.0 0.0 0.00 0.00 0.00 75 1001.1
20260506125131 43 180 0.0 0.0 0.00 0.00 0.00 79 1001.1
20260506124725 43 180 0.0 0.0 0.00 0.00 0.00 81 1001.1
20260506124523 42 180 0.0 0.0 0.00 0.00 0.00 83 1001.1
20260506124325 42 180 0.0 0.0 0.00 0.00 0.00 83 1001.3
20260506124120 41 180 0.0 0.0 0.00 0.00 0.00 83 1001.1
20260506123921 40 180 0.0 0.0 0.00 0.00 0.00 85 1001.3
20260506123718 40 180 0.0 0.0 0.00 0.00 0.00 85 1001.3
20260506123518 40 180 0.0 0.0 0.00 0.00 0.00 83 1001.3
20260506123315 40 180 0.0 0.0 0.00 0.00 0.00 85 1001.3
20260506123116 40 180 0.0 0.0 0.00 0.00 0.00 83 1001.3
20260506122914 40 180 0.0 0.0 0.00 0.00 0.00 83 1001.4
20260506122802 40 180 0.0 0.0 0.00 0.00 0.00 84 1001.3
20260506122713 40 180 0.0 0.0 0.00 0.00 0.00 84 1001.3
20260506122510 40 180 0.0 0.0 0.00 0.00 0.00 84 1001.3
20260506122311 41 180 0.0 0.0 0.00 0.00 0.00 84 1001.3
20260506122108 41 180 0.0 0.0 0.00 0.00 0.00 85 1001.3
20260506121712 41 180 0.0 0.0 0.00 0.00 0.00 84 1001.3
20260506121510 41 180 0.0 0.0 0.00 0.00 0.00 87 1001.3
20260506121103 39 180 0.0 0.0 0.00 0.00 0.00 88 1001.3
20260506120900 39 180 0.0 0.0 0.00 0.00 0.00 87 1001.3
20260506120704 39 180 0.0 0.0 0.00 0.00 0.00 87 1001.1
20260506120458 39 180 0.0 0.0 0.00 0.00 0.00 87 1001.1
20260506120300 39 180 0.0 0.0 0.00 0.00 0.00 88 1001.1
20260506120055 39 180 0.0 0.0 0.00 0.00 0.00 86 1001.1
20260506115855 39 180 0.0 0.0 0.00 0.00 0.00 87 1001.1
20260506115658 39 180 0.0 0.0 0.00 0.00 0.00 88 1001.1
20260506115453 38 180 0.0 0.0 0.00 0.00 0.00 88 1001.3
20260506115252 39 180 0.0 0.0 0.00 0.00 0.00 88 1001.3
20260506115057 39 180 0.0 0.0 0.00 0.00 0.00 87 1001.1
20260506114855 39 180 0.0 0.0 0.00 0.00 0.00 88 1001.1
20260506114446 39 180 0.0 0.0 0.00 0.00 0.00 85 1001.1
20260506114249 40 180 0.0 0.0 0.00 0.00 0.00 86 1001.1
20260506114049 40 180 0.0 0.0 0.00 0.00 0.00 85 1001.1
20260506113846 40 180 0.0 0.0 0.00 0.00 0.00 85 1001.3
20260506113645 40 180 0.0 0.0 0.00 0.00 0.00 86 1001.1
20260506113449 41 180 0.0 0.0 0.00 0.00 0.00 88 1001.1
20260506113245 40 180 0.0 0.0 0.00 0.00 0.00 89 1001.1
20260506112838 38 180 0.0 0.0 0.00 0.00 0.00 87 1001.1
20260506112235 38 180 0.0 0.0 0.00 0.00 0.00 86 1001.1
20260506112033 39 180 0.0 0.0 0.00 0.00 0.00 86 1001.1
20260506111832 39 180 0.0 0.0 0.00 0.00 0.00 87 1001.3
20260506111630 40 180 0.0 0.0 0.00 0.00 0.00 90 1001.1
20260506111432 39 180 0.0 0.0 0.00 0.00 0.00 89 1001.4
20260506111228 39 180 0.0 0.0 0.00 0.00 0.00 89 1001.1
20260506111027 38 180 0.0 0.0 0.00 0.00 0.00 90 1001.3
20260506110849 38 180 0.0 0.0 0.00 0.00 0.00 92 1001.3
20260506110626 38 180 0.0 0.0 0.00 0.00 0.00 91 1001.3
20260506110222 38 180 0.0 0.0 0.00 0.00 0.00 86 1001.1
20260506110025 38 180 0.0 0.0 0.00 0.00 0.00 90 1001.3
20260506105821 38 180 0.0 0.0 0.00 0.00 0.00 90 1001.3
20260506105433 38 180 0.0 0.0 0.00 0.00 0.00 86 1001.3
20260506105219 38 180 0.0 0.0 0.00 0.00 0.00 88 1001.3
20260506105156 39 180 0.0 0.0 0.00 0.00 0.00 92 1001.4
20260506105018 39 180 0.0 0.0 0.00 0.00 0.00 89 1001.3
20260506104812 39 180 0.0 0.0 0.00 0.00 0.00 92 1001.4
20260506104613 39 180 0.0 0.0 0.00 0.00 0.00 93 1001.3
20260506104410 40 180 0.0 0.0 0.00 0.00 0.00 94 1001.4
20260506104209 39 180 0.0 0.0 0.00 0.00 0.00 93 1001.3
20260506103810 39 180 0.0 0.0 0.00 0.00 0.00 95 1001.3
20260506103649 39 180 0.0 0.0 0.00 0.00 0.00 94 1001.4
20260506103606 39 180 0.0 0.0 0.00 0.00 0.00 94 1001.4
20260506103406 39 180 0.0 0.0 0.00 0.00 0.00 95 1001.3
20260506102802 38 180 0.0 0.0 0.00 0.00 0.00 95 1001.3
20260506102357 37 180 0.0 0.0 0.00 0.00 0.00 95 1001.3
20260506102237 37 180 0.0 0.0 0.00 0.00 0.00 95 1001.3
20260506102202 37 180 0.0 0.0 0.00 0.00 0.00 95 1001.3
20260506101955 37 180 0.0 0.0 0.00 0.00 0.00 95 1001.3
20260506101557 37 180 0.0 0.0 0.00 0.00 0.00 96 1001.3
20260506101352 37 180 0.0 0.0 0.00 0.00 0.00 96 1001.3
20260506100951 37 180 0.0 0.0 0.00 0.00 0.00 95 1001.3
20260506100754 37 180 0.0 0.0 0.00 0.00 0.00 95 1001.3
20260506100545 37 180 0.0 0.0 0.00 0.00 0.00 96 1001.3
20260506100344 37 180 0.0 0.0 0.00 0.00 0.00 94 1001.3
20260506100143 36 180 0.0 0.0 0.00 0.00 0.00 95 1001.4
20260506095940 36 180 0.0 0.0 0.00 0.00 0.00 96 1001.3
20260506095743 36 180 0.0 0.0 0.00 0.00 0.00 96 1001.3
20260506095540 36 180 0.0 0.0 0.00 0.00 0.00 96 1001.3
20260506095338 36 180 0.0 0.0 0.00 0.00 0.00 96 1001.1
20260506095135 36 180 0.0 0.0 0.00 0.00 0.00 96 1001.1
20260506094935 36 180 0.0 0.0 0.00 0.00 0.00 96 1001.1
20260506094533 35 180 0.0 0.0 0.00 0.00 0.00 96 1001.1
20260506094330 35 180 0.0 0.0 0.00 0.00 0.00 96 1001.0
20260506093928 35 180 0.0 0.0 0.00 0.00 0.00 92 1001.0
20260506093528 35 180 0.0 0.0 0.00 0.00 0.00 95 1001.0
20260506093325 35 180 0.0 0.0 0.00 0.00 0.00 93 1001.0
20260506092720 35 180 0.0 0.0 0.00 0.00 0.00 88 1000.9
20260506092520 35 180 0.0 0.0 0.00 0.00 0.00 86 1000.9
20260506092318 35 180 0.0 0.0 0.00 0.00 0.00 82 1001.0
20260506092118 35 180 0.0 0.0 0.00 0.00 0.00 81 1000.9
20260506091717 35 180 0.0 0.0 0.00 0.00 0.00 82 1000.8
20260506091513 34 180 0.0 0.0 0.00 0.00 0.00 82 1000.8
20260506091313 34 180 0.0 0.0 0.00 0.00 0.00 84 1000.8
20260506090929 34 180 0.0 0.0 0.00 0.00 0.00 82 1000.8
20260506090710 34 180 0.0 0.0 0.00 0.00 0.00 80 1000.8
20260506090511 34 180 0.0 0.0 0.00 0.00 0.00 79 1000.8
20260506090307 34 180 0.0 0.0 0.00 0.00 0.00 78 1000.8
20260506090105 34 180 0.0 0.0 0.00 0.00 0.00 79 1000.8
20260506085902 34 180 0.0 0.0 0.00 0.00 0.00 80 1000.6
20260506085705 34 180 0.0 0.0 0.00 0.00 0.00 82 1000.6
20260506085500 34 180 0.0 0.0 0.00 0.00 0.00 82 1000.6
20260506085259 34 180 0.0 0.0 0.00 0.00 0.00 81 1000.6
20260506084857 33 180 0.0 0.0 0.00 0.00 0.00 81 1000.8
20260506084656 34 180 0.0 0.0 0.00 0.00 0.00 82 1000.6
20260506084455 33 180 0.0 0.0 0.00 0.00 0.00 83 1000.6
20260506084327 33 180 0.0 0.0 0.00 0.00 0.00 83 1000.6
20260506084252 33 180 0.0 0.0 0.00 0.00 0.00 83 1000.6
20260506084052 33 180 0.0 0.0 0.00 0.00 0.00 83 1000.6
20260506083849 33 180 0.0 0.0 0.00 0.00 0.00 83 1000.6
20260506083649 33 180 0.0 0.0 0.00 0.00 0.00 84 1000.5
20260506083247 33 180 0.0 0.0 0.00 0.00 0.00 83 1000.5
20260506083051 33 180 0.0 0.0 0.00 0.00 0.00 84 1000.5
20260506082845 33 180 0.0 0.0 0.00 0.00 0.00 85 1000.5
20260506082642 33 180 0.0 0.0 0.00 0.00 0.00 84 1000.5
20260506082442 32 180 0.0 0.0 0.00 0.00 0.00 84 1000.5
20260506082239 32 180 0.0 0.0 0.00 0.00 0.00 83 1000.5
20260506081842 32 180 0.0 0.0 0.00 0.00 0.00 84 1000.5
20260506081636 32 180 0.0 0.0 0.00 0.00 0.00 84 1000.5
20260506081511 32 180 0.0 0.0 0.00 0.00 0.00 86 1000.5
20260506081434 32 180 0.0 0.0 0.00 0.00 0.00 86 1000.5
20260506081239 32 180 0.0 0.0 0.00 0.00 0.00 86 1000.5
20260506081038 32 180 0.0 0.0 0.00 0.00 0.00 88 1000.5
20260506080832 32 180 0.0 0.0 0.00 0.00 0.00 87 1000.5
20260506080629 32 180 0.0 0.0 0.00 0.00 0.00 86 1000.5
20260506080432 32 180 0.0 0.0 0.00 0.00 0.00 84 1000.5
20260506080226 32 180 0.0 0.0 0.00 0.00 0.00 85 1000.5
20260506073209 30 180 0.0 0.0 0.00 0.00 0.00 94 1000.4
20260506073007 31 180 0.0 0.0 0.00 0.00 0.00 94 1000.4
20260506072806 31 180 0.0 0.0 0.00 0.00 0.00 92 1000.4
20260506072603 31 180 0.0 0.0 0.00 0.00 0.00 91 1000.5
20260506072440 30 180 0.0 0.0 0.00 0.00 0.00 91 1000.4
20260506072405 30 180 0.0 0.0 0.00 0.00 0.00 91 1000.4
20260506072237 30 180 0.0 0.0 0.00 0.00 0.00 94 1000.4
20260506072201 30 180 0.0 0.0 0.00 0.00 0.00 94 1000.4
20260506072001 30 180 0.0 0.0 0.00 0.00 0.00 95 1000.3
20260506071559 30 180 0.0 0.0 0.00 0.00 0.00 97 1000.3
20260506071356 30 180 0.0 0.0 0.00 0.00 0.00 98 1000.3
20260506071247 30 180 0.0 0.0 0.00 0.00 0.00 97 1000.3
20260506071156 30 180 0.0 0.0 0.00 0.00 0.00 97 1000.3
20260506070551 31 180 0.0 0.0 0.00 0.00 0.00 85 1000.1
20260506070352 31 180 0.0 0.0 0.00 0.00 0.00 85 1000.1
20260506070149 31 180 0.0 0.0 0.00 0.00 0.00 85 1000.3
20260506062326 29 180 0.0 0.0 0.00 0.00 0.00 97 999.9
20260506061924 29 180 0.0 0.0 0.00 0.00 0.00 95 999.7
20260506061722 29 180 0.0 0.0 0.00 0.00 0.00 95 999.7
20260506061319 29 180 0.0 0.0 0.00 0.00 0.00 93 999.7
20260506061119 29 180 0.0 0.0 0.00 0.00 0.00 95 999.7
20260506060921 29 180 0.0 0.0 0.00 0.00 0.00 95 999.7
20260506060717 29 180 0.0 0.0 0.00 0.00 0.00 95 999.7
20260506060332 29 180 0.0 0.0 0.00 0.00 0.00 94 999.7
20260506060117 29 180 0.0 0.0 0.00 0.00 0.00 95 999.7
20260506051241 30 180 0.0 0.0 0.00 0.00 0.00 88 999.4
20260506051045 30 180 0.0 0.0 0.00 0.00 0.00 88 999.4
20260506050847 29 180 0.0 0.0 0.00 0.00 0.00 88 999.4
20260506050639 29 180 0.0 0.0 0.00 0.00 0.00 90 999.2
20260506050437 29 180 0.0 0.0 0.00 0.00 0.00 91 999.2
20260506050237 29 180 0.0 0.0 0.00 0.00 0.00 92 999.2
20260506045030 29 180 0.0 0.0 0.00 0.00 0.00 87 999.1
20260506044627 29 180 0.0 0.0 0.00 0.00 0.00 91 999.2
20260506044424 29 180 0.0 0.0 0.00 0.00 0.00 92 999.2
20260506044021 29 180 0.0 0.0 0.00 0.00 0.00 90 999.2
20260506043822 30 180 0.0 0.0 0.00 0.00 0.00 90 999.2
20260506043619 30 180 0.0 0.0 0.00 0.00 0.00 88 999.2
20260506043419 30 180 0.0 0.0 0.00 0.00 0.00 87 999.2
20260506043216 30 180 0.0 0.0 0.00 0.00 0.00 86 999.2
20260506043018 30 180 0.0 0.0 0.00 0.00 0.00 86 999.2
20260506042819 29 180 0.0 0.0 0.00 0.00 0.00 88 999.1
20260506042616 30 180 0.0 0.0 0.00 0.00 0.00 88 999.1
20260506042414 30 180 0.0 0.0 0.00 0.00 0.00 89 999.1
20260506042216 30 180 0.0 0.0 0.00 0.00 0.00 88 999.1
20260506041814 30 180 0.0 0.0 0.00 0.00 0.00 90 999.1
20260506041606 30 180 0.0 0.0 0.00 0.00 0.00 89 999.1
20260506041204 30 180 0.0 0.0 0.00 0.00 0.00 89 999.1
20260506041004 30 180 0.0 0.0 0.00 0.00 0.00 89 999.1
20260506040801 30 180 0.0 0.0 0.00 0.00 0.00 91 999.1
20260506040608 30 180 0.0 0.0 0.00 0.00 0.00 91 999.0
20260506040359 30 180 0.0 0.0 0.00 0.00 0.00 90 999.0
20260506040200 30 180 0.0 0.0 0.00 0.00 0.00 90 999.1
20260506035956 30 180 0.0 0.0 0.00 0.00 0.00 90 999.1
20260506035756 30 180 0.0 0.0 0.00 0.00 0.00 89 999.1
20260506035554 30 180 0.0 0.0 0.00 0.00 0.00 88 999.1
20260506035354 30 180 0.0 0.0 0.00 0.00 0.00 90 999.2
20260506034951 30 180 0.0 0.0 0.00 0.00 0.00 87 999.1
20260506034755 30 180 0.0 0.0 0.00 0.00 0.00 89 999.1
20260506034549 30 180 0.0 0.0 0.00 0.00 0.00 88 999.1
20260506034353 30 180 0.0 0.0 0.00 0.00 0.00 86 999.1
20260506034147 30 180 0.0 0.0 0.00 0.00 0.00 86 999.2
20260506033832 30 180 0.0 0.0 0.00 0.00 0.00 87 999.2
20260506033746 30 180 0.0 0.0 0.00 0.00 0.00 87 999.2
20260506033542 30 180 0.0 0.0 0.00 0.00 0.00 88 999.2
20260506033341 30 180 0.0 0.0 0.00 0.00 0.00 89 999.2
20260506033139 30 180 0.0 0.0 0.00 0.00 0.00 91 999.2
20260506032939 30 180 0.0 0.0 0.00 0.00 0.00 91 999.2
20260506032736 30 180 0.0 0.0 0.00 0.00 0.00 90 999.2
20260506032537 30 180 0.0 0.0 0.00 0.00 0.00 90 999.2
20260506032411 30 180 0.0 0.0 0.00 0.00 0.00 90 999.2
20260506032334 30 180 0.0 0.0 0.00 0.00 0.00 90 999.2
20260506032134 30 180 0.0 0.0 0.00 0.00 0.00 89 999.2
20260506031732 31 180 0.0 0.0 0.00 0.00 0.00 89 999.2
20260506031530 31 180 0.0 0.0 0.00 0.00 0.00 88 999.1
20260506031332 31 180 0.0 0.0 0.00 0.00 0.00 88 999.1
20260506031129 31 180 0.0 0.0 0.00 0.00 0.00 85 999.1
20260506030929 31 180 0.0 0.0 0.00 0.00 0.00 86 999.2
20260506030526 31 180 0.0 0.0 0.00 0.00 0.00 87 999.1
20260506030324 31 180 0.0 0.0 0.00 0.00 0.00 88 999.2
20260506030126 31 180 0.0 0.0 0.00 0.00 0.00 86 999.2
20260506025921 31 180 0.0 0.0 0.00 0.00 0.00 85 999.2
20260506025725 31 180 0.0 0.0 0.00 0.00 0.00 86 999.4
20260506025326 31 180 0.0 0.0 0.00 0.00 0.00 87 999.5
20260506025117 31 180 0.0 0.0 0.00 0.00 0.00 87 999.2
20260506024916 31 180 0.0 0.0 0.00 0.00 0.00 88 999.2
20260506024713 31 180 0.0 0.0 0.00 0.00 0.00 89 999.4
20260506024554 31 180 0.0 0.0 0.00 0.00 0.00 88 999.4
20260506024516 31 180 0.0 0.0 0.00 0.00 0.00 88 999.4
20260506024317 31 180 0.0 0.0 0.00 0.00 0.00 88 999.4
20260506024117 31 180 0.0 0.0 0.00 0.00 0.00 89 999.5
20260506023913 31 180 0.0 0.0 0.00 0.00 0.00 89 999.4
20260506023708 31 180 0.0 0.0 0.00 0.00 0.00 90 999.4
20260506023506 31 180 0.0 0.0 0.00 0.00 0.00 89 999.4
20260506023103 31 180 0.0 0.0 0.00 0.00 0.00 88 999.4
20260506022907 31 180 0.0 0.0 0.00 0.00 0.00 91 999.4
20260506022706 31 180 0.0 0.0 0.00 0.00 0.00 91 999.4
20260506022501 31 180 0.0 0.0 0.00 0.00 0.00 91 999.2
20260506022259 31 180 0.0 0.0 0.00 0.00 0.00 91 999.2
20260506022100 31 180 0.0 0.0 0.00 0.00 0.00 91 999.2
20260506021857 31 180 0.0 0.0 0.00 0.00 0.00 91 999.4
20260506021656 31 180 0.0 0.0 0.00 0.00 0.00 91 999.4
20260506021455 31 180 0.0 0.0 0.00 0.00 0.00 93 999.4
20260506021258 31 180 0.0 0.0 0.00 0.00 0.00 92 999.4
20260506021058 31 180 0.0 0.0 0.00 0.00 0.00 91 999.4
20260506020648 31 180 0.0 0.0 0.00 0.00 0.00 91 999.4
20260506020448 31 180 0.0 0.0 0.00 0.00 0.00 90 999.4
20260506020246 31 180 0.0 0.0 0.00 0.00 0.00 90 999.5
20260506020047 31 180 0.0 0.0 0.00 0.00 0.00 90 999.2
20260506015843 31 180 0.0 0.0 0.00 0.00 0.00 89 999.4
20260506015645 31 180 0.0 0.0 0.00 0.00 0.00 90 999.5
20260506015246 32 180 0.0 0.0 0.00 0.00 0.00 90 999.5
20260506015039 32 180 0.0 0.0 0.00 0.00 0.00 90 999.5
20260506014839 32 180 0.0 0.0 0.00 0.00 0.00 90 999.5
20260506014637 31 180 0.0 0.0 0.00 0.00 0.00 92 999.5
20260506014437 31 180 0.0 0.0 0.00 0.00 0.00 92 999.5
20260506013832 31 180 0.0 0.0 0.00 0.00 0.00 92 999.4
20260506013631 31 180 0.0 0.0 0.00 0.00 0.00 92 999.5
20260506013228 31 180 0.0 0.0 0.00 0.00 0.00 93 999.4
20260506013025 32 180 0.0 0.0 0.00 0.00 0.00 94 999.5
20260506012423 31 180 0.0 0.0 0.00 0.00 0.00 94 999.5
20260506012221 31 180 0.0 0.0 0.00 0.00 0.00 95 999.4
20260506012021 31 180 0.0 0.0 0.00 0.00 0.00 95 999.4
20260506011936 32 180 0.0 0.0 0.00 0.00 0.00 95 999.5
20260506011818 31 180 0.0 0.0 0.00 0.00 0.00 95 999.4
20260506011618 32 180 0.0 0.0 0.00 0.00 0.00 95 999.4
20260506011415 32 180 0.0 0.0 0.00 0.00 0.00 95 999.5
20260506011217 32 180 0.0 0.0 0.00 0.00 0.00 95 999.5
20260506011013 32 180 0.0 0.0 0.00 0.00 0.00 96 999.4
20260506010816 32 180 0.0 0.0 0.00 0.00 0.00 95 999.6
20260506010611 32 180 0.0 0.0 0.00 0.00 0.00 96 999.5
20260506010411 31 180 0.0 0.0 0.00 0.00 0.00 97 999.6
20260506010008 32 180 0.0 0.0 0.00 0.00 0.00 97 999.6
20260506005806 32 180 0.0 0.0 0.00 0.00 0.00 98 999.6
20260506005605 31 180 0.0 0.0 0.00 0.00 0.00 98 999.6
20260506005404 31 180 0.0 0.0 0.00 0.00 0.00 99 999.7
20260506005210 32 180 0.0 0.0 0.00 0.00 0.00 98 999.7
20260506005005 31 180 0.0 0.0 0.00 0.00 0.00 98 999.7
20260506004559 31 180 0.0 0.0 0.00 0.00 0.00 99 999.7
20260506004358 32 180 0.0 0.0 0.00 0.00 0.00 99 999.9
20260506004157 32 180 0.0 0.0 0.00 0.00 0.00 100 999.9
20260506003955 31 180 0.0 0.0 0.00 0.00 0.00 100 999.9
20260506003752 31 180 0.0 0.0 0.00 0.00 0.00 100 999.9
20260506003553 32 180 0.0 0.0 0.00 0.00 0.00 100 999.9
20260506003153 31 180 0.0 0.0 0.00 0.00 0.00 100 1000.0
20260506002947 31 180 0.0 0.0 0.00 0.00 0.00 100 1000.0
20260506002748 31 180 0.0 0.0 0.00 0.00 0.00 100 1000.1
20260506002710 31 180 0.0 0.0 0.00 0.00 0.00 100 1000.0
20260506002545 31 180 0.0 0.0 0.00 0.00 0.00 100 1000.0
20260506002356 31 180 0.0 0.0 0.00 0.00 0.00 100 1000.1
20260506002306 31 180 0.0 0.0 0.00 0.00 0.00 99 1000.1
20260506002143 31 180 0.0 0.0 0.00 0.00 0.00 99 1000.1
20260506001948 31 180 0.0 0.0 0.00 0.00 0.00 100 1000.1
20260506001741 31 180 0.0 0.0 0.00 0.00 0.00 100 1000.1
20260506001546 31 180 0.0 0.0 0.00 0.00 0.00 100 1000.1
20260506001338 31 180 0.0 0.0 0.00 0.00 0.00 100 1000.1
20260506001013 32 180 0.0 0.0 0.00 0.00 0.00 100 1000.1
20260506000935 32 180 0.0 0.0 0.00 0.00 0.00 100 1000.1
20260506000842 32 180 0.0 0.0 0.00 0.00 0.00 100 1000.3
20260506000738 32 180 0.0 0.0 0.00 0.00 0.00 100 1000.3
20260506000533 32 180 0.0 0.0 0.00 0.00 0.00 100 1000.1
20260506000333 32 180 0.0 0.0 0.00 0.00 0.00 100 1000.1
20260505235931 32 180 0.0 0.0 0.00 0.00 0.00 100 1000.3
20260505235728 31 180 0.0 0.0 0.00 0.00 0.00 100 1000.1
20260505235531 32 180 0.0 0.0 0.00 0.00 0.00 100 1000.3
20260505235126 32 180 0.0 0.0 0.00 0.00 0.00 100 1000.1
20260505234924 32 180 0.0 0.0 0.00 0.00 0.00 100 1000.3
20260505234321 32 180 0.0 0.0 0.00 0.00 0.00 100 1000.3
20260505233924 32 180 0.0 0.0 0.00 0.00 0.00 100 1000.3
20260505233716 32 180 0.0 0.0 0.00 0.00 0.00 100 1000.3
20260505233519 32 180 0.0 0.0 0.00 0.00 0.00 100 1000.3
20260505233321 32 180 0.0 0.0 0.00 0.00 0.00 100 1000.3
20260505232911 32 180 0.0 0.0 0.00 0.00 0.00 100 1000.3
20260505232710 32 180 0.0 0.0 0.00 0.00 0.00 100 1000.3
20260505232508 32 180 0.0 0.0 0.00 0.00 0.00 100 1000.4
20260505232328 32 180 0.0 0.0 0.00 0.00 0.00 100 1000.5
20260505232110 32 180 0.0 0.0 0.00 0.00 0.00 100 1000.4
20260505231906 32 180 0.0 0.0 0.00 0.00 0.00 100 1000.5
20260505231707 32 180 0.0 0.0 0.00 0.00 0.00 100 1000.6
20260505231504 32 180 0.0 0.0 0.00 0.00 0.00 100 1000.6
20260505231303 32 180 0.0 0.0 0.00 0.00 0.00 100 1000.6
20260505231103 32 180 0.0 0.0 0.00 0.00 0.00 100 1000.8
20260505230900 32 180 0.0 0.0 0.00 0.00 0.00 100 1000.6
20260505230702 31 180 0.0 0.0 0.00 0.00 0.00 100 1000.6
20260505230456 32 180 0.0 0.0 0.00 0.00 0.00 100 1000.6
20260505230257 32 180 0.0 0.0 0.00 0.00 0.00 100 1000.8
20260505225901 32 180 0.0 0.0 0.00 0.00 0.00 100 1000.8
20260505225655 32 180 0.0 0.0 0.00 0.00 0.00 100 1000.9
20260505225451 32 180 0.0 0.0 0.00 0.00 0.00 100 1000.9
20260505225248 32 180 0.0 0.0 0.00 0.00 0.00 100 1000.8
20260505225049 32 180 0.0 0.0 0.00 0.00 0.00 100 1000.8
20260505224821 32 180 0.0 0.0 0.00 0.00 0.00 100 1000.8
20260505224649 32 180 0.0 0.0 0.00 0.00 0.00 100 1000.8
20260505224443 32 180 0.0 0.0 0.00 0.00 0.00 100 1000.9
20260505224248 32 180 0.0 0.0 0.00 0.00 0.00 100 1000.9
20260505224044 32 180 0.0 0.0 0.00 0.00 0.00 100 1000.9
20260505223638 32 180 0.0 0.0 0.00 0.00 0.00 100 1001.0
20260505223443 32 180 0.0 0.0 0.00 0.00 0.00 100 1000.9
20260505223241 32 180 0.0 0.0 0.00 0.00 0.00 100 1001.0
20260505223036 32 180 0.0 0.0 0.00 0.00 0.00 100 1000.9
20260505222637 32 180 0.0 0.0 0.00 0.00 0.00 100 1000.9
20260505222432 32 180 0.0 0.0 0.00 0.00 0.00 100 1001.1
20260505222028 32 180 0.0 0.0 0.00 0.00 0.00 100 1000.9
20260505221830 32 180 0.0 0.0 0.00 0.00 0.00 100 1001.0
20260505221443 32 180 0.0 0.0 0.00 0.00 0.00 100 1001.1
20260505221240 32 180 0.0 0.0 0.00 0.00 0.00 100 1001.3
20260505221028 32 180 0.0 0.0 0.00 0.00 0.00 100 1001.3
20260505220829 32 180 0.0 0.0 0.00 0.00 0.00 100 1001.1
20260505220019 32 180 0.0 0.0 0.00 0.00 0.00 100 1001.3
20260505215820 32 180 0.0 0.0 0.00 0.00 0.00 100 1001.3
20260505215512 32 180 0.0 0.0 0.00 0.00 0.00 100 1001.3
20260505215415 32 180 0.0 0.0 0.00 0.00 0.00 100 1001.3
20260505215216 32 180 0.0 0.0 0.00 0.00 0.00 100 1001.3
20260505215011 32 180 0.0 0.0 0.00 0.00 0.00 100 1001.3
20260505214814 32 180 0.0 0.0 0.00 0.00 0.00 100 1001.3
20260505214609 32 180 0.0 0.0 0.00 0.00 0.00 100 1001.1
20260505214406 32 180 0.0 0.0 0.00 0.00 0.00 100 1001.3
20260505213804 32 180 0.0 0.0 0.00 0.00 0.00 100 1001.4
20260505213602 32 180 0.0 0.0 0.00 0.00 0.00 100 1001.5
20260505213506 32 180 0.0 0.0 0.00 0.00 0.00 100 1001.5
20260505213401 32 180 0.0 0.0 0.00 0.00 0.00 100 1001.5
20260505212959 32 180 0.0 0.0 0.00 0.00 0.00 100 1001.4
20260505212756 32 180 0.0 0.0 0.00 0.00 0.00 100 1001.5
20260505212558 32 180 0.0 0.0 0.00 0.00 0.00 100 1001.4
20260505212154 32 180 0.0 0.0 0.00 0.00 0.00 100 1001.4
20260505211953 32 180 0.0 0.0 0.00 0.00 0.00 100 1001.5
20260505211751 32 180 0.0 0.0 0.00 0.00 0.00 100 1001.5
20260505211356 32 180 0.0 0.0 0.00 0.00 0.00 100 1001.4
20260505211146 32 180 0.0 0.0 0.00 0.00 0.00 100 1001.5
20260505210946 32 180 0.0 0.0 0.00 0.00 0.00 100 1001.5
20260505210745 32 180 0.0 0.0 0.00 0.00 0.00 100 1001.4
20260505210644 32 180 0.0 0.0 0.00 0.00 0.00 100 1001.5
20260505210544 32 180 0.0 0.0 0.00 0.00 0.00 100 1001.5
20260505210356 32 180 0.0 0.0 0.00 0.00 0.00 100 1001.5
20260505205939 32 180 0.0 0.0 0.00 0.00 0.00 100 1001.5
20260505205740 32 180 0.0 0.0 0.00 0.00 0.00 100 1001.5
20260505205136 32 180 0.0 0.0 0.00 0.00 0.00 100 1001.7
20260505204934 32 180 0.0 0.0 0.00 0.00 0.00 100 1001.5
20260505204731 32 180 0.0 0.0 0.00 0.00 0.00 100 1001.5
20260505204531 32 180 0.0 0.0 0.00 0.00 0.00 100 1001.5
20260505204336 32 180 0.0 0.0 0.00 0.00 0.00 100 1001.4
20260505204134 32 180 0.0 0.0 0.00 0.00 0.00 100 1001.4
20260505203928 32 180 0.0 0.0 0.00 0.00 0.00 100 1001.4
20260505203727 32 180 0.0 0.0 0.00 0.00 0.00 100 1001.4
20260505203324 32 180 0.0 0.0 0.00 0.00 0.00 100 1001.3
20260505203124 32 180 0.0 0.0 0.00 0.00 0.00 100 1001.3
20260505202921 32 180 0.0 0.0 0.00 0.00 0.00 100 1001.1
20260505202720 32 180 0.0 0.0 0.00 0.00 0.00 100 1001.1
20260505202520 32 180 0.0 0.0 0.00 0.00 0.00 100 1001.0
20260505202319 32 180 0.0 0.0 0.00 0.00 0.00 100 1001.0
20260505201914 32 180 0.0 0.0 0.00 0.00 0.00 100 1001.0
20260505201715 32 180 0.0 0.0 0.00 0.00 0.00 100 1001.0
20260505201516 33 180 0.0 0.0 0.00 0.00 0.00 100 1001.0
20260505201426 33 180 0.0 0.0 0.00 0.00 0.00 100 1001.0
20260505201311 33 180 0.0 0.0 0.00 0.00 0.00 100 1001.0
20260505201111 33 180 0.0 0.0 0.00 0.00 0.00 100 1001.0
20260505201003 33 180 0.0 0.0 0.00 0.00 0.00 100 1001.0
20260505200709 33 180 0.0 0.0 0.00 0.00 0.00 100 1000.9
20260505200508 33 180 0.0 0.0 0.00 0.00 0.00 100 1001.0
20260505200304 33 180 0.0 0.0 0.00 0.00 0.00 100 1001.0
20260505195901 33 180 0.0 0.0 0.00 0.00 0.00 100 1000.9
20260505195459 33 180 0.0 0.0 0.00 0.00 0.00 100 1000.9
20260505195333 33 180 0.0 0.0 0.00 0.00 0.00 100 1000.8
20260505195259 33 180 0.0 0.0 0.00 0.00 0.00 100 1000.8
20260505195059 33 180 0.0 0.0 0.00 0.00 0.00 100 1000.8
20260505194857 33 180 0.0 0.0 0.00 0.00 0.00 100 1000.8
20260505194657 33 180 0.0 0.0 0.00 0.00 0.00 100 1000.8
20260505194537 33 180 0.0 0.0 0.00 0.00 0.00 100 1000.8
20260505194454 33 180 0.0 0.0 0.00 0.00 0.00 100 1000.8
20260505194254 33 180 0.0 0.0 0.00 0.00 0.00 100 1000.8
20260505194100 33 180 0.0 0.0 0.00 0.00 0.00 100 1000.8
20260505193850 33 180 0.0 0.0 0.00 0.00 0.00 99 1000.8
20260505193649 33 180 0.0 0.0 0.00 0.00 0.00 100 1000.6
20260505193447 33 180 0.0 0.0 0.00 0.00 0.00 100 1000.6
20260505193329 33 180 0.0 0.0 0.00 0.00 0.00 100 1000.6
20260505193249 33 180 0.0 0.0 0.00 0.00 0.00 100 1000.6
20260505193045 33 180 0.0 0.0 0.00 0.00 0.00 100 1000.6
20260505192642 33 180 0.0 0.0 0.00 0.00 0.00 100 1000.5
20260505192443 33 180 0.0 0.0 0.00 0.00 0.00 100 1000.5
20260505192240 33 180 0.0 0.0 0.00 0.00 0.00 100 1000.5
20260505192040 33 180 0.0 0.0 0.00 0.00 0.00 100 1000.6
20260505191839 33 180 0.0 0.0 0.00 0.00 0.00 100 1000.5
20260505191638 33 180 0.0 0.0 0.00 0.00 0.00 100 1000.6
20260505191435 34 180 0.0 0.0 0.00 0.00 0.00 100 1000.6
20260505191235 34 180 0.0 0.0 0.00 0.00 0.00 100 1000.5
20260505191032 34 180 0.0 0.0 0.00 0.00 0.00 100 1000.5
20260505190836 34 180 0.0 0.0 0.00 0.00 0.00 100 1000.5
20260505190632 34 180 0.0 0.0 0.00 0.00 0.00 100 1000.5
20260505190430 34 180 0.0 0.0 0.00 0.00 0.00 100 1000.5
20260505190229 34 180 0.0 0.0 0.00 0.00 0.00 100 1000.4
20260505190032 34 180 0.0 0.0 0.00 0.00 0.00 100 1000.4
20260505185423 35 180 0.0 0.0 0.00 0.00 0.00 99 1000.3
20260505185225 35 180 0.0 0.0 0.00 0.00 0.00 99 1000.3
20260505185020 35 180 0.0 0.0 0.00 0.00 0.00 98 1000.3
20260505184618 35 180 0.0 0.0 0.00 0.00 0.00 98 1000.4
20260505184417 35 180 0.0 0.0 0.00 0.00 0.00 98 1000.4
20260505184216 35 180 0.0 0.0 0.00 0.00 0.00 97 1000.4
20260505184024 35 180 0.0 0.0 0.00 0.00 0.00 97 1000.3
20260505183529 35 180 0.0 0.0 0.00 0.00 0.00 97 1000.3
20260505183412 35 180 0.0 0.0 0.00 0.00 0.00 97 1000.3
20260505183009 36 180 0.0 0.0 0.00 0.00 0.00 97 1000.3
20260505182808 36 180 0.0 0.0 0.00 0.00 0.00 96 1000.1
20260505182407 36 180 0.0 0.0 0.00 0.00 0.00 98 1000.3
20260505182205 36 180 0.0 0.0 0.00 0.00 0.00 98 1000.3
20260505181601 36 180 0.0 0.0 0.00 0.00 0.00 98 1000.3
20260505181359 36 180 0.0 0.0 0.00 0.00 0.00 98 1000.1
20260505181158 36 180 0.0 0.0 0.00 0.00 0.00 97 1000.3
20260505180756 37 180 0.0 0.0 0.00 0.00 0.00 98 1000.1
20260505180553 36 180 0.0 0.0 0.00 0.00 0.00 97 1000.3
20260505180437 36 180 0.0 0.0 0.00 0.00 0.00 96 1000.3
20260505180353 36 180 0.0 0.0 0.00 0.00 0.00 96 1000.3
20260505180151 37 180 0.0 0.0 0.00 0.00 0.00 96 1000.3
20260505175952 37 180 0.0 0.0 0.00 0.00 0.00 96 1000.1
20260505175749 37 180 0.0 0.0 0.00 0.00 0.00 96 1000.3
20260505175624 37 180 0.0 0.0 0.00 0.00 0.00 95 1000.3
20260505175549 37 180 0.0 0.0 0.00 0.00 0.00 95 1000.3
20260505175346 38 180 0.0 0.0 0.00 0.00 0.00 95 1000.1
20260505175147 38 180 0.0 0.0 0.00 0.00 0.00 94 1000.1
20260505174945 39 180 0.0 0.0 0.00 0.00 0.00 86 1000.1
20260505174749 38 180 0.0 0.0 0.00 0.00 0.00 83 1000.1
20260505174542 39 180 0.0 0.0 0.00 0.00 0.00 87 1000.3
20260505174138 38 180 0.0 0.0 0.00 0.00 0.00 87 1000.3
20260505173943 39 180 0.0 0.0 0.00 0.00 0.00 87 1000.3
20260505173736 39 180 0.0 0.0 0.00 0.00 0.00 84 1000.4
20260505173536 39 180 0.0 0.0 0.00 0.00 0.00 85 1000.4
20260505173333 39 180 0.0 0.0 0.00 0.00 0.00 80 1000.4
20260505173134 39 180 0.0 0.0 0.00 0.00 0.00 78 1000.4
20260505172934 39 180 0.0 0.0 0.00 0.00 0.00 85 1000.4
20260505172732 39 180 0.0 0.0 0.00 0.00 0.00 85 1000.5
20260505172528 39 180 0.0 0.0 0.00 0.00 0.00 88 1000.5
20260505172126 39 180 0.0 0.0 0.00 0.00 0.00 91 1000.5
20260505171928 39 180 0.0 0.0 0.00 0.00 0.00 90 1000.6
20260505171727 40 180 0.0 0.0 0.00 0.00 0.00 92 1000.5
20260505171523 40 180 0.0 0.0 0.00 0.00 0.00 90 1000.4
20260505171121 41 180 0.0 0.0 0.00 0.00 0.00 82 1000.4
20260505170955 40 180 0.0 0.0 0.00 0.00 0.00 88 1000.4
20260505170918 40 180 0.0 0.0 0.00 0.00 0.00 88 1000.4
20260505170518 40 180 0.0 0.0 0.00 0.00 0.00 87 1000.4
20260505170122 41 180 0.0 0.0 0.00 0.00 0.00 89 1000.3
20260505165913 41 180 0.0 0.0 0.00 0.00 0.00 89 1000.3
20260505165710 41 180 0.0 0.0 0.00 0.00 0.00 89 1000.4
20260505165511 41 180 0.0 0.0 0.00 0.00 0.00 93 1000.3
20260505165308 40 180 0.0 0.0 0.00 0.00 0.00 87 1000.3
20260505165109 40 180 0.0 0.0 0.00 0.00 0.00 88 1000.3
20260505164911 40 180 0.0 0.0 0.00 0.00 0.00 85 1000.3
20260505164707 40 180 0.0 0.0 0.00 0.00 0.00 85 1000.4
20260505164503 39 180 0.0 0.0 0.00 0.00 0.00 86 1000.5
20260505164305 39 180 0.0 0.0 0.00 0.00 0.00 89 1000.6
20260505164104 40 180 0.0 0.0 0.00 0.00 0.00 87 1000.6
20260505163459 39 180 0.0 0.0 0.00 0.00 0.00 95 1000.9
20260505163257 38 180 0.0 0.0 0.00 0.00 0.00 95 1000.9
20260505163107 38 180 0.0 0.0 0.00 0.00 0.00 95 1000.9
20260505162853 38 180 0.0 0.0 0.00 0.00 0.00 95 1001.0
20260505162654 37 180 0.0 0.0 0.00 0.00 0.00 96 1001.0
20260505162451 37 180 0.0 0.0 0.00 0.00 0.00 96 1001.0
20260505162251 37 180 0.0 0.0 0.00 0.00 0.00 99 1001.1
20260505162048 37 180 0.0 0.0 0.00 0.00 0.00 100 1001.0
20260505161848 37 180 0.0 0.0 0.00 0.00 0.00 100 1001.0
20260505161647 37 180 0.0 0.0 0.00 0.00 0.00 100 1000.8
20260505161447 37 180 0.0 0.0 0.00 0.00 0.00 100 1000.9
20260505161243 37 180 0.0 0.0 0.00 0.00 0.00 100 1001.0
20260505161047 38 180 0.0 0.0 0.00 0.00 0.00 100 1000.9
20260505160844 38 180 0.0 0.0 0.00 0.00 0.00 100 1000.9
20260505160641 37 180 0.0 0.0 0.00 0.00 0.00 100 1001.0
20260505160439 38 180 0.0 0.0 0.00 0.00 0.00 100 1000.9
20260505153221 39 180 0.0 0.0 0.00 0.00 0.00 100 1000.6
20260505152817 38 180 0.0 0.0 0.00 0.00 0.00 98 1000.8
20260505152649 38 180 0.0 0.0 0.00 0.00 0.00 96 1000.8
20260505152617 38 180 0.0 0.0 0.00 0.00 0.00 96 1000.8
20260505152415 39 180 0.0 0.0 0.00 0.00 0.00 96 1000.8
20260505152213 39 180 0.0 0.0 0.00 0.00 0.00 95 1000.8
20260505152011 39 180 0.0 0.0 0.00 0.00 0.00 94 1000.8
20260505151608 40 180 0.0 0.0 0.00 0.00 0.00 92 1000.6
20260505151409 41 180 0.0 0.0 0.00 0.00 0.00 92 1000.6
20260505151007 41 180 0.0 0.0 0.00 0.00 0.00 88 1000.8
20260505150806 41 180 0.0 0.0 0.00 0.00 0.00 87 1000.8
20260505150402 40 180 0.0 0.0 0.00 0.00 0.00 84 1000.8
20260505140530 46 180 0.0 0.0 0.00 0.00 0.00 55 1000.4
20260505140132 46 180 0.0 0.0 0.00 0.00 0.00 56 1000.4